sat.trackr.live / text

‹ back to catalog

STARLINK-36797

NORAD 67815 · 2026-032U

PAYLOAD ACTIVE UNKNOWN

§ Identity

Operator
Country
US
Launch date
2026-02-15
Launch site
AFWTR
Launch vehicle
Mass (kg)
RCS (m²)

Purposes: comms

External: N2YO · Heavens-Above · Gunter

§ Orbital elements

Epoch: 2026-05-25T01:12:45.569088Z

Period
93.91 min
Inclination
97.2843°
Eccentricity
0.0001196
Mean motion
15.33454237 rev/d
Perigee alt
464.7 km
Apogee alt
466.3 km
Semi-major
6,843.7 km
B*
7.1823e-4
RAAN
333.1491°
Arg perigee
91.3882°
Mean anomaly
268.7498°
Rev number
1,666

§ Raw data

STARLINK-367971 67815U 26032U   26145.05052742  .00023190  00000+0  71823-3 0  99912 67815  97.2843 333.1491 0001196  91.3882 268.7498 15.33454237 16664

JSON: /api/v1/satellites/67815 · /tle

For live sub-satellite position, see the globe view (requires WebGL).

§ Visibility from observer

Set your observer location to see the next 7 days of passes ≥ 10°. The values pass through the URL so the page stays shareable.

No JS? Fill the form by hand. The geolocation button needs JavaScript.